THOR ABLESTAR DEB, 336

Orbit data source: Space-Track

THOR ABLESTAR DEB, 336 is space debris in LEO originally from a launch on Thu, 29 Jun 1961 UTC launched from the Air Force Eastern Test Range (AFETR). Debris objects in space refer to the collection of defunct objects orbiting the Earth. Examples of debris include non-operational satellites, rocket bodies, and fragments generated from explosions, collisions, or faulty payload assembly.

Loading next visibility...
THOR ABLESTAR DEB details
Identifier
336, 1961-015DN
Orbit
LEO
Last TLE update10 hours ago
Origin
Flag of USUSAF SSD (US)
ManufacturerUnknown
MissionSpacecraft
Bus & MotorUnknown
MassUnknown
Launch date (UTC)
1961-06-29 (64 years ago)
Launch vehicleUnknown
Launch site
Air Force Eastern Test Range (AFETR)
Object type
Payload
Rocket body
Debris
Shape & HBRUnknown
Radar Cross SectionSmall (<0.1 m²)

Expand to show TLE details & history

TLE from 10 hours ago
0 THOR ABLESTAR DEB
1 00336U 61015DN  25014.93374209  .00000109  00000-0  20402-3 0  9995
2 00336  67.0319 322.4725 0074977 150.4458 272.4398 13.69008711168259
Epoch: 2025-01-14T22:24Z
Definitive object data (Epoch: 2025-01-14T22:24:35.316Z)
Latitude54.52051°
Longitude-92.04148°
Altitude1,009.36 km
Speed7.354 km/s
True Right ascension23h 54m 57s
True Declination54° 21' 48"
Sunlit
Object was in daylight at TLE epoch
Visualization TLE readout
Latitude1.00003°
Longitude-128.87872°
Altitude1,052.388 km
Speed7.303 km/s
Apparent Right ascension21h 23m 38s
Apparent Declination-17° 44' 08"
Sunlit
Object is in daylight
Visualization observer readout
Local Sidereal Time09:17:38
Azimuth356.213° N
Elevation-67.781°
Doppler factor1
Orbital elements
Apogee altitude1,056.847 km
Perigee altitude946.186 km
Semi-major axis7,379.653 km
Eccentricity0.0074977
Inclination67.0319°
RAAN322.4725°
Arg. of periapsis150.4458°
True anomaly271.5811°
Mean anomaly272.4398°
Eccentric anomaly272.01048°
Mean motion3.42365 °/min
BSTAR0.00020402
Orbital period105.15 mins
Loading maneuver chart data...

THOR ABLESTAR DEB Visibility forecast

Observer location: undefined°, undefined

Span
Click to sort rows by Start time (UTC) header in descending order
Start Az.
Max El. time (UTC)
Max El. Az.
Max El.
End time (UTC)
End Az.
10 mins2025-01-15 21:00:53.647Z167.731° S2025-01-15 21:05:53.647Z105.354° ESE30.538°2025-01-15 21:10:53.647Z48.079° ENE
10 mins2025-01-15 22:48:53.647Z242.636° WSW2025-01-15 22:53:53.647Z309.945° NW33.421°2025-01-15 22:58:53.647Z12.531° NNE
9 mins2025-01-16 06:13:53.647Z353.055° N2025-01-16 06:17:53.647Z50.637° ENE32.305°2025-01-16 06:22:53.647Z117.525° SE
9 mins2025-01-16 08:01:53.647Z306.611° NW2025-01-16 08:05:53.647Z253.178° W29.678°2025-01-16 08:10:53.647Z190.78° SSW
|